Address 0x1fe6733213214017e754630796e858b578975485

 
 
Txn Hash Method
Block
From
To
Value [Txn Fee]
0x55b1288e8d63168ea5e6be75c156b8712db9a90e8718ecefac335b181dc672d6Transfer144471262022-01-17 14:50:117 days 8 hrs ago0x1fe6733213214017e754630796e858b578975485OUT0xac4b9f70fd6530b2f47e2ab5bba6726ac511f3a00.662623082017115 BNB0.000105
0x4b97f993567b9be15bee6457fa6a99fa11316783396d2650dd804c61bdd9e399Swap Exact Token...144470332022-01-17 14:45:247 days 8 hrs ago0x1fe6733213214017e754630796e858b578975485OUT SafeMoon: Swap Router0 BNB0.004364975
0x39e9dc62e5f843ebaa9f4a488845ad1f14ec33a55d1d85846f3a9c450e51056eTransfer144469852022-01-17 14:42:587 days 8 hrs ago0xac4b9f70fd6530b2f47e2ab5bba6726ac511f3a0 IN 0x1fe6733213214017e754630796e858b5789754850.002015109515488 BNB0.000105
0xdef6b15aa3717d3915112b5d97f894fd50ebd7ad3845113e3e8314304a2db3d1Swap Exact Token...143776202022-01-15 4:38:109 days 18 hrs ago0x1fe6733213214017e754630796e858b578975485OUT SafeMoon: Swap Router0 BNB0.00483637
0xcda882c994b1df22ad1f480d169a4dd78250a1bff5e1c3c5ecafca9b91cb4165Approve143776122022-01-15 4:37:449 days 18 hrs ago0x1fe6733213214017e754630796e858b578975485OUT Cardano: ADA Token0 BNB0.00022203
0x9fedb086d41fb09eec7519db914a749176e51d79ed06d3f5401629b75065c326Transfer143772952022-01-15 4:21:469 days 18 hrs ago0x1fe6733213214017e754630796e858b578975485OUT Cardano: ADA Token0 BNB0.000180575
0x3adb3e8874a4adcd83f0613d4dfcc1d54296d25c05ea575031a93042cbd1dc5fSwap Exact ETH F...143772812022-01-15 4:21:049 days 18 hrs ago0x1fe6733213214017e754630796e858b578975485OUT SafeMoon: Swap Router0.923463165077065 BNB0.000712735
0xe69402a150d07fa1ce72610ef384efa2f0b6512caf933d9fdf0acd7e993bf12cTransfer143771762022-01-15 4:15:499 days 18 hrs ago0x1fe6733213214017e754630796e858b578975485OUT Cardano: ADA Token0 BNB0.000255515
0xbdda8743cf7703f14f1b84f43e615471284dddbd315a25eb9b5cefa02fb4846dSwap Exact ETH F...143771512022-01-15 4:14:349 days 18 hrs ago0x1fe6733213214017e754630796e858b578975485OUT SafeMoon: Swap Router0.0000555 BNB0.000787735
0xe5688d3c3d7b11b2500c64c3026261675f20c60c9fee83ed8b5f99cde6605db5Swap Exact Token...143770902022-01-15 4:11:319 days 18 hrs ago0x1fe6733213214017e754630796e858b578975485OUT SafeMoon: Swap Router0 BNB0.004364975
0xb9299cc2082797298d5e8c81437abc366271856fe162e109e99eb90679d56008Transfer143769922022-01-15 4:06:379 days 18 hrs ago0xac4b9f70fd6530b2f47e2ab5bba6726ac511f3a0 IN 0x1fe6733213214017e754630796e858b5789754850.009055660413818 BNB0.000105
0x96e9691af1464a055c625f159e969ce5b1680d9666bf549c63126127f7c09162Transfer143115452022-01-12 21:28:5312 days 1 hr ago0x1fe6733213214017e754630796e858b578975485OUT0xac4b9f70fd6530b2f47e2ab5bba6726ac511f3a00.019343704509493 BNB0.000105
0x78dd6e1f7a48bbf3a8f4ac67bf56ccb57cddcc0913084db04639fb7fed856ad3Approve143115142022-01-12 21:27:2012 days 1 hr ago0x1fe6733213214017e754630796e858b578975485OUT SafeMoon: SFM Token0 BNB0.00024674
0x6c71dd6e87473cb578491c0a05a067d05e4db1dec34bbe152ef1055df43bf5d3Swap Exact ETH F...137642312021-12-24 20:36:1631 days 2 hrs ago0x1fe6733213214017e754630796e858b578975485OUT SafeMoon: Swap Router0.003587533528479 BNB0.0014899
0x0c0e4b5cd2b7ab4d636274b32becf10a64e95e55667ed5ee9ade0bf52a556568Swap Exact ETH F...137641782021-12-24 20:33:3731 days 2 hrs ago0x1fe6733213214017e754630796e858b578975485OUT SafeMoon: Swap Router0.004835361028479 BNB0.00166377
0xc3dbf2bcaae032b0de65824c08ab4534d0f848de12ff0a21c612592be4cb6221Swap Exact ETH F...137641332021-12-24 20:31:2231 days 2 hrs ago0x1fe6733213214017e754630796e858b578975485OUT SafeMoon: Swap Router0.083993904113919 BNB0.00155082
0xe485b50de88c867e81a32f998ed348584f9a2ac936138492462bf29d340843b1Transfer137640242021-12-24 20:25:5531 days 2 hrs ago0xac4b9f70fd6530b2f47e2ab5bba6726ac511f3a0 IN 0x1fe6733213214017e754630796e858b5789754850.109835142151892 BNB0.000105
0x893e16f002176dee0e96f060bcce4502f0db43701f26180b51f5ac2fadad949aMigrate135108032021-12-16 0:29:1539 days 22 hrs ago0x1fe6733213214017e754630796e858b578975485OUT 0x9d50518de14f89836f2b9b9ac05f177de7bf521a0 BNB0.00592646
0x8215e31eec5c3a805fe9dcccf5aebb519b06c6bf66d35c807bcd182907763bddMigrate134761532021-12-14 19:30:0841 days 3 hrs ago0x1fe6733213214017e754630796e858b578975485OUT 0x9d50518de14f89836f2b9b9ac05f177de7bf521a0 BNB0.00585269
0x4215928dbea8b57a64114a1c6a9b4379e5b4781946d2feef55596a2aca4406e9Swap Exact ETH F...134756702021-12-14 19:05:5941 days 3 hrs ago0x1fe6733213214017e754630796e858b578975485OUT SafeMoon: Swap Router0.011997299999999 BNB0.01006322
0x9bd9de7edb0d06aa4d4be1d103a84b25b961bfe76a19f1b9074b6200d737e5c1Migrate134746582021-12-14 18:14:5641 days 4 hrs ago0x1fe6733213214017e754630796e858b578975485OUT 0x9d50518de14f89836f2b9b9ac05f177de7bf521a0 BNB0.00585287
0x786ab39adfa892bfa17c1407da24a305ad0758b12928cd2a39e887050cfa2c65Migrate134746492021-12-14 18:14:2941 days 4 hrs ago0x1fe6733213214017e754630796e858b578975485OUT 0x9d50518de14f89836f2b9b9ac05f177de7bf521a0 BNB0.00592799
0x432a04b2f2225e856e33fff11968d216048b62a92aa4abc552168b0e5d71e05fApprove134745392021-12-14 18:08:5941 days 4 hrs ago0x1fe6733213214017e754630796e858b578975485OUT Safemoon Protocol: Old SAFEMOON Token0 BNB0.00022274
0x81b909f35dd46ee2697d8854dfc7f43d315431bbcda75487e5a54d1d5e57c990Transfer134745112021-12-14 18:07:3541 days 4 hrs ago0x1fbe2acee135d991592f167ac371f3dd893a508b IN 0x1fe6733213214017e754630796e858b5789754850.048 BNB0.00021
[ Download CSV Export 
Latest 2 internal transactions
Parent Txn Hash Block From To Value
0x4b97f993567b9be15bee6457fa6a99fa11316783396d2650dd804c61bdd9e399144470332022-01-17 14:45:247 days 8 hrs ago SafeMoon: Swap Router0x1fe6733213214017e754630796e858b5789754850.661040157501626461 BNB
0xe5688d3c3d7b11b2500c64c3026261675f20c60c9fee83ed8b5f99cde6605db5143770902022-01-15 4:11:319 days 18 hrs ago SafeMoon: Swap Router0x1fe6733213214017e754630796e858b5789754850.929860729663246987 BNB
[ Download CSV Export 
Loading

Contract Name:
0 BNB

Compiler Version
0

Optimization Enabled:
0 BNB

Other Settings:
-NA-
Block Transaction Gas Used Reward
Age Block Fee Address BC Fee Address Voting Power Jailed Incoming
Block Uncle Number Difficulty Gas Used Reward
Loading
Loading
Make sure to use the "Vote Down" button for any spammy posts, and the "Vote Up" for interesting conversations.